TimeCDT,TemperatureF,Dew PointF,Humidity,Sea Level PressureIn,VisibilityMPH,Wind Direction,Wind SpeedMPH,Gust SpeedMPH,PrecipitationIn,Events,Conditions,WindDirDegrees,DateUTC
12:51 AM,43.0,28.9,58,30.27,10.0,WSW,4.6,-,N/A,,Clear,240,2013-04-25 05:51:00
1:51 AM,43.0,28.9,58,30.26,10.0,SW,4.6,-,N/A,,Clear,220,2013-04-25 06:51:00
2:51 AM,42.1,28.9,60,30.26,10.0,SW,6.9,-,N/A,,Clear,230,2013-04-25 07:51:00
3:51 AM,42.1,30.0,62,30.25,10.0,SW,8.1,-,N/A,,Clear,230,2013-04-25 08:51:00
4:51 AM,42.1,28.9,60,30.25,10.0,WSW,10.4,-,N/A,,Clear,240,2013-04-25 09:51:00
5:51 AM,44.1,28.9,55,30.26,10.0,West,12.7,-,N/A,,Clear,260,2013-04-25 10:51:00
6:51 AM,44.1,30.0,58,30.28,10.0,West,9.2,-,N/A,,Partly Cloudy,270,2013-04-25 11:51:00
7:51 AM,46.9,32.0,56,30.30,10.0,West,11.5,-,N/A,,Partly Cloudy,270,2013-04-25 12:51:00
8:51 AM,50.0,34.0,54,30.33,10.0,WNW,11.5,-,N/A,,Partly Cloudy,300,2013-04-25 13:51:00
9:51 AM,52.0,32.0,47,30.35,10.0,NW,11.5,-,N/A,,Partly Cloudy,320,2013-04-25 14:51:00
10:51 AM,54.0,30.0,40,30.37,10.0,WNW,8.1,-,N/A,,Partly Cloudy,300,2013-04-25 15:51:00
11:51 AM,55.9,28.9,36,30.38,10.0,North,9.2,-,N/A,,Partly Cloudy,350,2013-04-25 16:51:00
12:51 PM,57.9,28.0,32,30.36,10.0,WNW,10.4,20.7,N/A,,Partly Cloudy,300,2013-04-25 17:51:00
1:51 PM,60.1,30.0,32,30.35,10.0,West,11.5,16.1,N/A,,Partly Cloudy,270,2013-04-25 18:51:00
2:51 PM,62.6,30.2,30,30.33,10.0,NW,5.8,-,N/A,,Scattered Clouds,320,2013-04-25 19:51:00
3:51 PM,62.1,30.0,30,30.32,10.0,WNW,4.6,-,N/A,,Scattered Clouds,290,2013-04-25 20:51:00
4:51 PM,62.1,28.9,29,30.31,10.0,Variable,4.6,-,N/A,,Scattered Clouds,0,2013-04-25 21:51:00
5:51 PM,63.0,28.9,28,30.30,10.0,NNW,3.5,-,N/A,,Scattered Clouds,330,2013-04-25 22:51:00
6:51 PM,61.0,30.9,32,30.30,10.0,ENE,3.5,-,N/A,,Scattered Clouds,70,2013-04-25 23:51:00
7:51 PM,61.0,28.0,29,30.29,10.0,Calm,Calm,-,N/A,,Scattered Clouds,0,2013-04-26 00:51:00
8:51 PM,54.0,35.1,49,30.30,10.0,ESE,8.1,-,N/A,,Mostly Cloudy,110,2013-04-26 01:51:00
9:51 PM,53.1,36.0,52,30.31,10.0,SE,9.2,-,N/A,,Mostly Cloudy,130,2013-04-26 02:51:00
10:51 PM,55.9,33.1,42,30.31,10.0,SE,10.4,-,N/A,,Mostly Cloudy,140,2013-04-26 03:51:00
11:51 PM,55.0,33.1,43,30.31,10.0,SE,10.4,-,N/A,,Mostly Cloudy,140,2013-04-26 04:51:00